Weather WX

World > North America > United States > Ohio

Delphos, Ohio Regional Weather

Lat: 40.84N, Lon: 84.34W
Wx Zone: OHZ024
Warning FLW WEATHER ALERT - (More Info. Click Here) Warning
Feedback

Delphos, OH Regional Weather

Expires:201907170500;;762722
ASUS41 KCLE 170412
RWRCLE
OHIO REGIONAL WEATHER ROUNDUP
NATIONAL WEATHER SERVICE WILMINGTON, OH
1200 AM EDT WED JUL 17 2019

NOTE: "FAIR" INDICATES FEW OR NO CLOUDS BELOW 12,000 FEET WITH NO
SIGNIFICANT WEATHER AND/OR OBSTRUCTIONS TO VISIBILITY.


OHZ001>008-015>018-024>027-034-035-043-044-170500-
   NORTHWEST OHIO
  
CITY           SKY/WX    TMP DP  RH WIND       PRES   REMARKS
DEFIANCE       LGT RAIN  75  71  87 SW10      29.93F                  
FINDLAY        MOCLDY    75  71  87 SE6       29.95S                  
TOLEDO EXPRESS FAIR      74  71  91 S3        29.93S                  
TOLEDO EXEC    FAIR      74  71  91 S8        29.94F                  
LIMA           LGT RAIN  74  72  93 SE7       29.95F                  
$$
 

SKY/WX - Weather  TMP - Temperature  DP - Dew Point  RH - Relative Humidity
WIND - Wind Direction/Speed PRES - Barometric Pressure VSB - Visibility
WCI - Wind Chill Index E13G22 Wind - East Wind 13 mph/Gusts of 22 mph